Location: Les Moreaux
(47.2278°N, 1.4966°E)
Time: 23:00:19
(UTC+00:00)

CZ-4C R/B - Visible Passes

Search period start: 10 May 2026 00:00
Search period end: 20 May 2026 00:00
Orbit: 408 x 501 km, 98.0° (Epoch: 10 May)

Date Brightness Start Highest point End Pass type
(mag) Time Alt. Az. Time Alt. Az. Time Alt. Az.
10 May 4.8 01:29:09 10° NNW 01:31:26 20° WNW 01:31:26 20° WNW visible
11 May 3.9 00:55:00 10° N 00:57:35 42° NNW 00:57:35 42° NNW visible
12 May 4.1 00:21:21 10° NNE 00:23:43 39° NE 00:23:43 39° NE visible
12 May 5.4 01:55:52 10° NW 01:57:03 12° WNW 01:57:27 11° WNW visible
12 May 5.2 23:48:15 10° NE 23:49:49 18° ENE 23:49:49 18° ENE visible
13 May 4.5 01:20:51 10° N 01:23:34 26° WNW 01:23:34 26° WNW visible
14 May 3.5 00:46:49 10° N 00:49:40 56° NNW 00:49:40 56° NNW visible
15 May 4.2 00:13:15 10° NNE 00:15:44 36° ENE 00:15:44 36° ENE visible
15 May 5.2 01:47:03 10° NNW 01:49:01 15° WNW 01:49:29 14° WNW visible
15 May 5.3 23:40:21 10° NE 23:41:48 16° ENE 23:41:48 16° ENE visible
16 May 4.1 01:12:27 10° N 01:15:32 33° WNW 01:15:32 33° WNW visible
17 May 3.2 00:38:31 10° NNE 00:41:35 69° NNE 00:41:35 69° NNE visible
18 May 4.4 00:05:04 10° NNE 00:07:37 30° ENE 00:07:37 30° ENE visible
18 May 4.9 01:38:21 10° NNW 01:40:49 19° WNW 01:41:21 18° WNW visible
18 May 5.5 23:32:25 10° ENE 23:33:37 13° E 23:33:37 13° E visible
19 May 3.6 01:03:58 10° N 01:07:17 44° WNW 01:07:21 43° WNW visible
